Date String (YYYY-MM-DD hh:mm:ss) UTC,Instrument flags,absolute air pressure of the measurement (hPa),sample flow rate (lpm),inlet stack bypass flow (lpm),air temperature of the measurement (°C),ambient temperature measured by the external sensor (°C),aerosol sample conditioner tube jacket temperature (°C),OPC LED temperature (°C),internal box temperature (°C),relative humidity of the measurement (%),span deviation,mass concentration of particles derived from Lorenz-Mie calculation of OPC scattering (μg/m³),mass concentration of particles derived from Lorenz-Mie calculation of OPC scattering (μg/m³),mass concentration of particles derived from Lorenz-Mie calculation of OPC scattering (μg/m³)
DateTimeUTC,F1_M11,P_M11,Q1_M11,Q2_M11,T1_M11,T2_M11,T3_M11,T4_M11,T5_M11,U1_M11,ZSPAN_M11,X2_M11,X0_M11,X1_M11
2024-01-18 23:00:00,SystemResetWarning,0831.8,5.01,000.00,018.9,018.0,000.0,027.2,020.5,12.9,0000.0,0002.34,0008.51,0001.42
2024-01-18 23:01:00,SystemResetWarning,0831.9,5.00,000.00,019.0,018.7,000.0,027.2,020.8,12.7,0000.0,0002.31,0007.97,0001.42
2024-01-18 23:02:00,SystemResetWarning,0832.0,4.99,000.00,019.0,018.7,000.0,027.2,020.4,12.6,0000.0,0002.33,0007.93,0001.44
2024-01-18 23:03:00,SystemResetWarning,0832.0,5.00,000.00,018.9,018.5,000.0,027.2,020.0,12.6,0000.0,0002.41,0009.27,0001.45
2024-01-18 23:04:00,SystemResetWarning,0831.9,5.01,000.00,018.9,018.3,000.0,027.2,020.0,12.7,0000.0,0002.57,0009.87,0001.48
2024-01-18 23:05:00,SystemResetWarning,0831.9,5.01,000.00,018.9,018.2,000.0,027.3,020.0,12.7,0000.0,0002.61,0010.08,0001.51
2024-01-18 23:06:00,SystemResetWarning,0832.0,5.00,000.00,018.9,018.1,000.0,027.3,020.0,12.8,0000.0,0002.63,0009.13,0001.53
2024-01-18 23:07:00,SystemResetWarning,0832.0,5.00,000.00,018.9,018.0,000.0,027.3,020.0,12.8,0000.0,0002.69,0009.21,0001.54
2024-01-18 23:08:00,SystemResetWarning,0832.0,5.00,000.00,018.8,017.9,000.0,027.3,020.0,12.7,0000.0,0002.69,0009.63,0001.55
2024-01-18 23:09:00,SystemResetWarning,0832.0,4.99,000.00,018.8,017.8,000.0,027.3,020.0,12.7,0000.0,0002.79,0009.97,0001.59
2024-01-18 23:10:00,SystemResetWarning,0832.0,4.99,000.00,018.8,017.8,000.0,027.3,020.0,12.7,0000.0,0002.77,0009.82,0001.60
2024-01-18 23:11:00,SystemResetWarning,0832.0,5.00,000.00,018.8,017.7,000.0,027.3,020.0,12.7,0000.0,0002.80,0009.61,0001.62
2024-01-18 23:12:00,SystemResetWarning,0832.0,5.02,000.00,018.8,017.7,000.0,027.3,020.0,12.6,0000.0,0002.84,0009.56,0001.66
2024-01-18 23:13:00,SystemResetWarning,0832.0,5.01,000.00,018.8,017.6,000.0,027.3,020.0,12.7,0000.0,0002.89,0010.12,0001.67
2024-01-18 23:14:00,SystemResetWarning,0832.1,5.00,000.00,018.8,017.6,000.0,027.3,020.0,12.6,0000.0,0002.84,0010.15,0001.66
2024-01-18 23:15:00,SystemResetWarning,0832.2,4.99,000.00,018.8,017.6,000.0,027.3,020.0,12.7,0000.0,0002.75,0009.15,0001.66
2024-01-18 23:16:00,SystemResetWarning,0832.2,5.00,000.00,018.8,017.6,000.0,027.3,020.0,12.8,0000.0,0002.71,0008.86,0001.66
2024-01-18 23:17:00,SystemResetWarning,0832.2,5.00,000.00,018.8,017.6,000.0,027.3,020.0,12.8,0000.0,0002.69,0009.54,0001.65
2024-01-18 23:18:00,SystemResetWarning,0832.2,4.99,000.00,018.8,017.5,000.0,027.3,020.0,12.7,0000.0,0002.65,0009.23,0001.67
2024-01-18 23:19:00,SystemResetWarning,0832.2,5.00,000.00,018.8,017.6,000.0,027.3,020.2,12.7,0000.0,0002.64,0008.72,0001.68
2024-01-18 23:20:00,SystemResetWarning,0832.2,5.00,000.00,018.9,018.3,000.0,027.2,020.6,12.5,0000.0,0002.53,0008.36,0001.66
2024-01-18 23:21:00,SystemResetWarning,0832.2,5.01,000.00,019.0,018.9,000.0,027.2,020.7,12.4,0000.0,0002.55,0008.89,0001.65
2024-01-18 23:22:00,SystemResetWarning,0832.2,4.99,000.00,019.0,018.8,000.0,027.2,020.3,12.3,0000.0,0002.55,0009.19,0001.65
2024-01-18 23:23:00,SystemResetWarning,0832.3,5.01,000.00,019.0,018.6,000.0,027.2,020.0,12.4,0000.0,0002.53,0009.21,0001.66
2024-01-18 23:24:00,SystemResetWarning,0832.3,5.01,000.00,018.9,018.4,000.0,027.2,020.0,12.3,0000.0,0002.51,0008.94,0001.66
2024-01-18 23:25:00,SystemResetWarning,0832.2,5.00,000.00,018.9,018.2,000.0,027.3,020.0,12.2,0000.0,0002.52,0008.09,0001.67
2024-01-18 23:26:00,SystemResetWarning,0832.2,5.00,000.00,018.9,018.1,000.0,027.3,020.0,12.2,0000.0,0002.51,0008.31,0001.66
2024-01-18 23:27:00,SystemResetWarning,0832.3,4.99,000.00,018.9,017.9,000.0,027.3,020.0,12.1,0000.0,0002.48,0009.57,0001.65
2024-01-18 23:28:00,SystemResetWarning,0832.2,4.99,000.00,018.9,017.9,000.0,027.3,020.0,12.1,0000.0,0002.46,0009.11,0001.66
2024-01-18 23:29:00,SystemResetWarning,0832.3,5.00,000.00,018.8,017.8,000.0,027.3,020.0,12.1,0000.0,0002.46,0008.84,0001.64
2024-01-18 23:30:00,SystemResetWarning,0832.4,5.01,000.00,018.8,017.7,000.0,027.3,020.0,12.1,0000.0,0002.46,0008.86,0001.64
2024-01-18 23:31:00,SystemResetWarning,0832.4,5.01,000.00,018.8,017.7,000.0,027.3,020.0,12.0,0000.0,0002.50,0009.47,0001.65
2024-01-18 23:32:00,SystemResetWarning,0832.3,5.01,000.00,018.8,017.6,000.0,027.3,020.0,12.0,0000.0,0002.47,0009.41,0001.66
2024-01-18 23:33:00,SystemResetWarning,0832.4,4.99,000.00,018.8,017.6,000.0,027.3,020.0,12.0,0000.0,0002.49,0009.33,0001.67
2024-01-18 23:34:00,SystemResetWarning,0832.5,4.99,000.00,018.8,017.6,000.0,027.3,020.0,12.0,0000.0,0002.49,0009.64,0001.67
2024-01-18 23:35:00,SystemResetWarning,0832.5,4.99,000.00,018.8,017.5,000.0,027.3,020.0,12.0,0000.0,0002.48,0010.51,0001.67
2024-01-18 23:36:00,SystemResetWarning,0832.5,5.02,000.00,018.8,017.7,000.0,027.3,020.2,11.9,0000.0,0002.51,0010.58,0001.68
2024-01-18 23:37:00,SystemResetWarning,0832.5,5.00,000.00,018.9,018.3,000.0,027.3,020.6,11.9,0000.0,0002.60,0010.60,0001.69
2024-01-18 23:38:00,SystemResetWarning,0832.5,4.99,000.00,019.0,018.9,000.0,027.3,020.8,11.8,0000.0,0002.64,0009.80,0001.71
2024-01-18 23:39:00,SystemResetWarning,0832.6,4.99,000.00,019.0,018.8,000.0,027.2,020.3,11.8,0000.0,0002.70,0009.84,0001.72
2024-01-18 23:40:00,SystemResetWarning,0832.5,5.00,000.00,019.0,018.6,000.0,027.2,020.0,11.9,0000.0,0002.74,0010.63,0001.72
2024-01-18 23:41:00,SystemResetWarning,0832.6,5.00,000.00,018.9,018.4,000.0,027.3,020.0,12.0,0000.0,0002.74,0010.68,0001.72
2024-01-18 23:42:00,SystemResetWarning,0832.5,5.01,000.00,018.9,018.3,000.0,027.3,020.0,12.0,0000.0,0002.81,0011.00,0001.73
2024-01-18 23:43:00,SystemResetWarning,0832.5,5.00,000.00,018.9,018.1,000.0,027.3,020.0,12.0,0000.0,0002.87,0011.35,0001.75
2024-01-18 23:44:00,SystemResetWarning,0832.5,5.00,000.00,018.9,018.0,000.0,027.3,020.0,12.0,0000.0,0002.91,0011.30,0001.76
2024-01-18 23:45:00,SystemResetWarning,0832.6,5.00,000.00,018.9,017.9,000.0,027.3,020.0,12.0,0000.0,0002.93,0011.29,0001.76
2024-01-18 23:46:00,SystemResetWarning,0832.7,5.00,000.00,018.9,017.8,000.0,027.3,020.0,12.0,0000.0,0002.96,0010.91,0001.76
2024-01-18 23:47:00,SystemResetWarning,0832.7,5.01,000.00,018.8,017.7,000.0,027.3,020.0,12.1,0000.0,0002.97,0011.74,0001.76
2024-01-18 23:48:00,SystemResetWarning,0832.7,5.00,000.00,018.8,017.7,000.0,027.3,020.0,12.1,0000.0,0002.89,0011.43,0001.76
2024-01-18 23:49:00,SystemResetWarning,0832.8,5.01,000.00,018.8,017.7,000.0,027.3,020.0,12.1,0000.0,0002.87,0011.24,0001.75
2024-01-18 23:50:00,SystemResetWarning,0832.8,5.01,000.00,018.8,017.6,000.0,027.3,020.0,12.0,0000.0,0002.90,0010.80,0001.75
2024-01-18 23:51:00,SystemResetWarning,0832.8,5.00,000.00,018.8,017.6,000.0,027.3,020.0,11.9,0000.0,0002.86,0010.01,0001.76
2024-01-18 23:52:00,SystemResetWarning,0832.8,5.00,000.00,018.8,017.6,000.0,027.3,020.0,11.9,0000.0,0002.81,0010.89,0001.75
2024-01-18 23:53:00,SystemResetWarning,0832.8,5.01,000.00,018.9,017.9,000.0,027.3,020.4,11.8,0000.0,0002.76,0010.32,0001.74
2024-01-18 23:54:00,SystemResetWarning,0832.8,5.00,000.00,019.0,018.7,000.0,027.3,020.8,11.7,0000.0,0002.74,0010.38,0001.73
2024-01-18 23:55:00,SystemResetWarning,0832.7,4.99,000.00,019.1,018.9,000.0,027.3,020.6,11.5,0000.0,0002.74,0010.36,0001.74
2024-01-18 23:56:00,SystemResetWarning,0832.7,4.99,000.00,019.0,018.7,000.0,027.3,020.1,11.6,0000.0,0002.72,0010.12,0001.75
2024-01-18 23:57:00,SystemResetWarning,0832.7,5.01,000.00,019.0,018.5,000.0,027.3,020.0,11.6,0000.0,0002.72,0009.72,0001.75
2024-01-18 23:58:00,SystemResetWarning,0832.8,5.00,000.00,018.9,018.3,000.0,027.3,020.0,11.6,0000.0,0002.72,0008.95,0001.77
2024-01-18 23:59:00,SystemResetWarning,0833.1,5.00,000.00,018.9,018.1,000.0,027.3,020.0,11.5,0000.0,0002.77,0009.11,0001.78
